Brookings, OR

2:55 PM PDT on June 26, 2017 (GMT -0700)
Brookings State

Weather History for KBOK - September, 2013

Change the Weather History Date:

Tuesday, September 10, 2013

  Actual Average Record
Temperature  
Mean Temperature 66 °F -  
Max Temperature 77 °F 67 °F 99 °F (2011)
Min Temperature 56 °F 50 °F 43 °F (1964)
Cooling Degree Days 2    
Growing Degree Days 16 (Base 50)    
Moisture  
Dew Point 56 °F    
Average Humidity 86    
Maximum Humidity 100    
Minimum Humidity 48    
Precipitation  
Precipitation 0.00 in - - ()
Sea Level Pressure  
Sea Level Pressure 29.81 in    
Wind  
Wind Speed 5 mph (SSE)    
Max Wind Speed 10 mph    
Max Gust Speed -    
Visibility 5 miles    
Events Fog , Rain    
Averages and records for this station are not official NWS values.
T = Trace of Precipitation, MM = Missing Value Source: NWS Daily Summary

Daily Weather History Graph

Daily Weather History Graph

Search for Another Location

Airport or City:

Trip Planner

Search our weather history database for the weather conditions in past years. The results will help you decide how hot, cold, wet, or windy it might be!

Date:

Astronomy

Sep. 10, 2013 Rise Set
Actual Time 6:52 AM PDT 7:34 PM PDT
Civil Twilight 6:24 AM PDT 8:02 PM PDT
Nautical Twilight 5:50 AM PDT 8:36 PM PDT
Astronomical Twilight 5:15 AM PDT 9:10 PM PDT
Moon 12:30 PM PDT (9/10) 10:36 PM PDT (9/10)
Length of Visible Light 13h 38m
Length of Day
12h 42m
Waxing Crescent, 29% of the Moon is Illuminated
Sep 10
Waxing Crescent
Sep 12
First Quarter
Sep 19
Full
Sep 26
Last Quarter
Oct 4
New

Hourly Weather History & Observations

Time (PDT) Temp. Dew Point Humidity Pressure Visibility Wind Dir Wind Speed Gust Speed Precip Events Conditions
12:56 AM 63.9 °F 55.9 °F 75% 29.74 in 8.0 mi Variable 3.5 mph - N/A   Clear
1:56 AM 68.9 °F 54.9 °F 61% 29.73 in 10.0 mi Calm Calm - N/A   Clear
2:56 AM 65.8 °F 56.8 °F 73% 29.73 in 10.0 mi SSE 4.6 mph - N/A   Clear
3:56 AM 61.0 °F 55.9 °F 83% 29.73 in 8.0 mi SE 3.5 mph - N/A   Clear
4:56 AM 61.9 °F 55.9 °F 81% 29.72 in 9.0 mi Calm Calm - N/A   Clear
5:56 AM 63.9 °F 56.8 °F 78% 29.72 in 10.0 mi Calm Calm - N/A   Clear
6:56 AM 64.9 °F 55.9 °F 73% 29.73 in 10.0 mi Calm Calm - N/A   Clear
7:56 AM 66.9 °F 55.9 °F 68% 29.73 in 10.0 mi Calm Calm - N/A   Clear
8:56 AM 77.0 °F 55.9 °F 48% 29.74 in 10.0 mi Calm Calm - N/A   Clear
9:56 AM 75.9 °F 59.9 °F 57% 29.75 in 7.0 mi South 4.6 mph - N/A   Clear
10:56 AM 70.0 °F 56.8 °F 63% 29.76 in 8.0 mi South 6.9 mph - N/A   Clear
11:56 AM 68.0 °F 57.9 °F 70% 29.78 in 6.0 mi SSE 8.1 mph - N/A   Haze
12:56 PM 68.0 °F 57.9 °F 70% 29.78 in 7.0 mi Variable 6.9 mph - N/A   Clear
1:56 PM 66.9 °F 56.8 °F 70% 29.79 in 8.0 mi South 9.2 mph - N/A   Clear
2:56 PM 63.9 °F 56.8 °F 78% 29.80 in 9.0 mi SSE 10.4 mph - N/A   Clear
3:13 PM 60.8 °F 57.2 °F 88% 29.81 in 6.0 mi South 9.2 mph - N/A   Scattered Clouds
3:19 PM 60.8 °F 55.4 °F 82% 29.81 in 2.5 mi SSE 10.4 mph - N/A   Mostly Cloudy
3:21 PM 60.8 °F 55.4 °F 82% 29.81 in 1.2 mi SSE 10.4 mph - N/A   Mostly Cloudy
3:23 PM 60.8 °F 55.4 °F 82% 29.81 in 0.8 mi South 8.1 mph - N/A   Mostly Cloudy
3:31 PM 59.0 °F 55.4 °F 88% 29.82 in 0.5 mi SSE 9.2 mph - N/A Fog Fog
3:39 PM 57.2 °F 55.4 °F 94% 29.81 in 0.2 mi SSE 10.4 mph - N/A Fog Fog
3:56 PM 57.9 °F 55.9 °F 93% 29.82 in 0.2 mi SSE 8.1 mph - N/A Fog Fog
4:41 PM 57.2 °F 55.4 °F 94% 29.82 in 0.5 mi SSE 6.9 mph - N/A Fog Fog
4:46 PM 57.2 °F 55.4 °F 94% 29.82 in 1.0 mi SSE 8.1 mph - N/A   Overcast
4:56 PM 57.9 °F 55.9 °F 93% 29.82 in 3.0 mi SE 8.1 mph - N/A   Overcast
5:56 PM 57.9 °F 55.9 °F 93% 29.83 in 3.0 mi SSE 10.4 mph - N/A   Overcast
6:00 PM 57.2 °F 55.4 °F 94% 29.83 in 1.8 mi SSE 10.4 mph - N/A   Overcast
6:14 PM 57.2 °F 55.4 °F 94% 29.83 in 1.0 mi SSE 9.2 mph - N/A   Overcast
6:20 PM 57.2 °F 55.4 °F 94% 29.83 in 0.5 mi SSE 6.9 mph - N/A Fog Fog
6:26 PM 57.2 °F 55.4 °F 94% 29.83 in 1.0 mi SE 5.8 mph - N/A   Overcast
6:33 PM 57.2 °F 55.4 °F 94% 29.83 in 0.8 mi SE 6.9 mph - N/A   Overcast
6:46 PM 57.2 °F 55.4 °F 94% 29.83 in 1.2 mi SSE 9.2 mph - N/A   Overcast
6:56 PM 57.9 °F 55.9 °F 93% 29.84 in 2.5 mi SE 9.2 mph - N/A   Overcast
7:08 PM 57.2 °F 55.4 °F 94% 29.84 in 1.0 mi SE 8.1 mph - N/A   Overcast
7:10 PM 57.2 °F 55.4 °F 94% 29.84 in 0.5 mi Variable 6.9 mph - N/A Fog Fog
7:20 PM 57.2 °F 55.4 °F 94% 29.84 in 0.2 mi SE 6.9 mph - N/A Fog Fog
7:56 PM 56.8 °F 55.9 °F 97% 29.85 in 0.2 mi ESE 5.8 mph - N/A Fog Fog
8:11 PM 57.2 °F 57.2 °F 100% 29.85 in 0.8 mi Variable 5.8 mph - N/A   Overcast
8:19 PM 57.2 °F 57.2 °F 100% 29.86 in 1.0 mi SE 6.9 mph - N/A   Overcast
8:22 PM 57.2 °F 57.2 °F 100% 29.86 in 1.5 mi SE 6.9 mph - N/A   Overcast
8:28 PM 57.2 °F 57.2 °F 100% 29.86 in 3.0 mi SE 5.8 mph - N/A   Overcast
8:56 PM 57.9 °F 56.8 °F 96% 29.87 in 6.0 mi SSE 8.1 mph - N/A   Overcast
9:20 PM 57.2 °F 57.2 °F 100% 29.87 in 2.5 mi Variable 6.9 mph - N/A   Overcast
9:29 PM 57.2 °F 57.2 °F 100% 29.88 in 5.0 mi SE 5.8 mph - N/A   Overcast
9:56 PM 57.9 °F 56.8 °F 96% 29.88 in 6.0 mi SE 6.9 mph - N/A   Overcast
10:43 PM 59.0 °F 57.2 °F 94% 29.89 in 10.0 mi SSE 9.2 mph - N/A   Overcast
10:56 PM 59.0 °F 56.8 °F 93% 29.89 in 10.0 mi SSE 8.1 mph - N/A   Overcast
11:48 PM 59.0 °F 57.2 °F 94% 29.90 in 10.0 mi SSE 8.1 mph - 0.00 in Rain Light Rain
11:56 PM 59.9 °F 57.9 °F 93% 29.90 in 10.0 mi SSE 10.4 mph - 0.00 in Rain Light Rain